Regional Weather Roundup
Issued by NWS

Home | Current Version | Previous Version | Graphics & Text | Print | Product List | Glossary On
Versions: 1 2 3 4 5 6 7 8 9 10 11 12 13 14 15 16 17 18 19 20 21 22 23 24 25 26 27 28 29 30 31 32 33 34 35 36 37 38 39 40 41 42 43 44 45 46 47 48 49 50
000
ASUS45 KBOI 282210
RWRID
WEATHER ROUNDUP FOR IDAHO
NATIONAL WEATHER SERVICE BOISE ID
300 PM MST FRI NOV 28 2014

NOTE: "FAIR" INDICATES FEW OR NO CLOUDS BELOW 12000 FEET
WITH NO SIGNIFICANT WEATHER AND/OR OBSTRUCTIONS TO VISIBILITY

IDZ012-014-282300-
SOUTHWEST IDAHO


CITY           SKY/WX    TMP DP  RH WIND       PRES   REMARKS
BOISE          MOSUNNY   63  28  26 SE6       29.70F
CALDWELL       NOT AVBL
MOUNTAIN HOME  MOSUNNY   54  44  67 SE7       29.72F
$$

IDZ016-017-282300-
SOUTHCENTRAL IDAHO


CITY           SKY/WX    TMP DP  RH WIND       PRES   REMARKS
BURLEY         CLOUDY    58  22  24 S15       29.75F
JEROME         CLOUDY    56  25  30 SW7       29.76F
TWIN FALLS     CLOUDY    61  21  21 SW9       29.76F
$$

IDZ019>023-282300-
SOUTHEAST IDAHO


CITY           SKY/WX    TMP DP  RH WIND       PRES   REMARKS
IDAHO FALLS    PTSUNNY   56  28  34 SW16      29.76F
POCATELLO      PTSUNNY   58  17  20 S22G31    29.77F
REXBURG        PTSUNNY   55  24  30 SW22G30   29.74F
$$

IDZ006-010-011-018-031-032-282300-
CENTRAL IDAHO MOUNTAINS


CITY           SKY/WX    TMP DP  RH WIND       PRES   REMARKS
MCCALL         CLOUDY    42  24  49 S10       29.70F
HAILEY         PTSUNNY   52  19  28 SE8       29.79F
STANLEY          N/A     47   0  14 SW12G21   29.77F
SALMON         MOSUNNY   57  18  21 SW18G33   29.57F
CHALLIS        MOSUNNY   52  11  19 W10G16    29.65F
$$

IDZ002-004-006-007-026-282300-
NORTHERN IDAHO


CITY           SKY/WX    TMP DP  RH WIND       PRES   REMARKS
LEWISTON       CLOUDY    59  41  51 SW20G26   29.47F
LOWELL           N/A     43  42  97 CALM      29.56F
COEUR D`ALENE  CLOUDY    54  37  54 SW26      29.37F
MULLAN PASS    LGT RAIN  33  33 100 SW12G25   29.41F VSB 1   WCI  24
$$



USA.gov is the U.S. government's official web portal to all federal, state and local government web resources and services.